Time,TemperatureF,DewpointF,PressureIn,WindDirection,WindDirectionDegrees,WindSpeedMPH,WindSpeedGustMPH,Humidity,HourlyPrecipIn,Conditions,Clouds,dailyrainin,SoftwareType,DateUTC
2013-02-22 00:04:00,43.7,21.0,-100.00,SSW,193,2.0,0.0,40,0.00,,,-99.99,FreeWX-Wi 1.01,2013-02-22 08:04:00,
2013-02-22 00:09:00,43.5,20.8,-100.00,SSW,193,2.0,0.0,40,0.00,,,-99.99,FreeWX-Wi 1.01,2013-02-22 08:09:00,
2013-02-22 00:14:00,43.5,20.8,-100.00,SSW,193,2.0,0.0,40,0.00,,,-99.99,FreeWX-Wi 1.01,2013-02-22 08:14:00,
2013-02-22 00:19:00,43.5,20.8,-100.00,SSW,193,2.0,0.0,40,0.00,,,-99.99,FreeWX-Wi 1.01,2013-02-22 08:19:00,
2013-02-22 00:24:00,43.5,20.8,-100.00,SSW,193,2.0,0.0,40,0.00,,,-99.99,FreeWX-Wi 1.01,2013-02-22 08:24:00,
2013-02-22 00:29:00,43.5,20.8,-100.00,SSW,194,2.0,3.6,40,0.00,,,-99.99,FreeWX-Wi 1.01,2013-02-22 08:29:00,
2013-02-22 00:34:00,43.7,20.3,-100.00,SSW,193,2.0,4.0,39,0.00,,,-99.99,FreeWX-Wi 1.01,2013-02-22 08:34:00,
2013-02-22 00:39:00,43.7,21.0,-100.00,SSW,196,2.0,8.1,40,0.00,,,-99.99,FreeWX-Wi 1.01,2013-02-22 08:39:00,
2013-02-22 00:44:00,43.5,20.8,-100.00,SSW,197,3.0,8.3,40,0.00,,,-99.99,FreeWX-Wi 1.01,2013-02-22 08:44:00,
2013-02-22 00:49:00,43.5,20.3,-100.00,SSW,197,3.0,6.3,39,0.00,,,-99.99,FreeWX-Wi 1.01,2013-02-22 08:49:00,
2013-02-22 00:55:00,43.5,20.3,-100.00,SSW,196,3.0,3.6,39,0.00,,,-99.99,FreeWX-Wi 1.01,2013-02-22 08:55:00,
2013-02-22 01:00:00,43.5,20.3,-100.00,SSW,194,3.0,4.0,39,0.00,,,-99.99,FreeWX-Wi 1.01,2013-02-22 09:00:00,
2013-02-22 01:05:00,43.5,20.8,-100.00,SSW,194,3.0,7.2,40,0.00,,,-99.99,FreeWX-Wi 1.01,2013-02-22 09:05:00,
2013-02-22 01:10:00,43.5,20.3,-100.00,SSW,194,3.0,8.1,39,0.00,,,-99.99,FreeWX-Wi 1.01,2013-02-22 09:10:00,
2013-02-22 01:15:00,43.5,20.3,-100.00,SSW,195,3.0,4.0,39,0.00,,,-99.99,FreeWX-Wi 1.01,2013-02-22 09:15:00,
2013-02-22 01:20:00,43.5,20.3,-100.00,SSW,194,3.0,4.9,39,0.00,,,-99.99,FreeWX-Wi 1.01,2013-02-22 09:20:00,
2013-02-22 01:25:00,43.5,20.3,-100.00,SSW,194,3.0,5.4,39,0.00,,,-99.99,FreeWX-Wi 1.01,2013-02-22 09:25:00,
2013-02-22 01:30:00,43.5,20.3,-100.00,SSW,196,3.0,6.3,39,0.00,,,-99.99,FreeWX-Wi 1.01,2013-02-22 09:30:00,
2013-02-22 01:35:00,43.3,20.1,-100.00,SSW,195,3.0,5.4,39,0.00,,,-99.99,FreeWX-Wi 1.01,2013-02-22 09:35:00,
2013-02-22 01:40:00,43.3,20.7,-100.00,SSW,195,3.0,3.6,40,0.00,,,-99.99,FreeWX-Wi 1.01,2013-02-22 09:40:00,
2013-02-22 01:45:00,43.3,20.7,-100.00,SSW,194,3.0,4.0,40,0.00,,,-99.99,FreeWX-Wi 1.01,2013-02-22 09:45:00,
2013-02-22 01:50:00,43.5,20.3,-100.00,SSW,193,3.0,8.7,39,0.00,,,-99.99,FreeWX-Wi 1.01,2013-02-22 09:50:00,
2013-02-22 01:55:00,43.3,20.7,-100.00,SSW,193,3.0,0.0,40,0.00,,,-99.99,FreeWX-Wi 1.01,2013-02-22 09:55:00,
2013-02-22 02:00:00,43.2,20.5,-100.00,SSW,193,3.0,5.8,40,0.00,,,-99.99,FreeWX-Wi 1.01,2013-02-22 10:00:00,
2013-02-22 02:05:00,42.8,20.1,-100.00,SSW,194,3.0,4.5,40,0.00,,,-99.99,FreeWX-Wi 1.01,2013-02-22 10:05:00,
2013-02-22 02:10:00,42.6,21.2,-100.00,SSW,193,3.0,4.0,42,0.00,,,-99.99,FreeWX-Wi 1.01,2013-02-22 10:10:00,
2013-02-22 02:15:00,42.4,21.6,-100.00,SSW,194,3.0,4.9,43,0.00,,,-99.99,FreeWX-Wi 1.01,2013-02-22 10:15:00,
2013-02-22 02:20:00,42.4,21.6,-100.00,SSW,194,3.0,0.0,43,0.00,,,-99.99,FreeWX-Wi 1.01,2013-02-22 10:20:00,
2013-02-22 02:25:00,42.3,21.9,-100.00,SSW,194,3.0,0.0,44,0.00,,,-99.99,FreeWX-Wi 1.01,2013-02-22 10:25:00,
2013-02-22 02:30:00,42.1,22.3,-100.00,SSW,194,3.0,0.0,45,0.00,,,-99.99,FreeWX-Wi 1.01,2013-02-22 10:30:00,
2013-02-22 02:35:00,42.1,22.3,-100.00,SSW,194,3.0,0.0,45,0.00,,,-99.99,FreeWX-Wi 1.01,2013-02-22 10:35:00,
2013-02-22 02:40:00,41.7,23.0,-100.00,SSW,194,3.0,0.0,47,0.04,,,-99.99,FreeWX-Wi 1.01,2013-02-22 10:40:00,
2013-02-22 02:45:00,41.7,23.0,-100.00,SSW,194,3.0,0.0,47,0.04,,,-99.99,FreeWX-Wi 1.01,2013-02-22 10:45:00,
2013-02-22 02:50:00,41.5,23.4,-100.00,SSW,194,3.0,0.0,48,0.04,,,-99.99,FreeWX-Wi 1.01,2013-02-22 10:50:00,
2013-02-22 02:55:00,41.5,23.4,-100.00,SSW,194,3.0,0.0,48,0.04,,,-99.99,FreeWX-Wi 1.01,2013-02-22 10:55:00,
2013-02-22 03:00:00,41.5,23.4,-100.00,SSW,194,3.0,0.0,48,0.04,,,-99.99,FreeWX-Wi 1.01,2013-02-22 11:00:00,
2013-02-22 03:05:00,41.4,23.7,-100.00,SSW,194,3.0,0.0,49,0.04,,,-99.99,FreeWX-Wi 1.01,2013-02-22 11:05:00,